Location: Gälforsberget
(66.6500°N, 22.4167°E)
Time: 09:28:59
(UTC+00:00)

NOSS 3-4 (C) - Pass Details

Date: 11 April 2026
Orbit: 773 x 1438 km, 63.4° (Epoch: 26 December)

Event Time Altitude Azimuth Distance (km) Brightness Sun altitude
Exits shadow 22:11:01 - 229° (SW) 2,881 5.6 -14.7°
Reaches altitude 10° 22:12:12 10° 226° (SW) 2,445 5.2 -14.7°
Maximum altitude 22:17:36 50° 152° (SSE) 1,142 3.5 -14.7°
Drops below altitude 10° 22:23:50 10° 79° (E) 2,813 6.0 -14.7°
Sets 22:26:43 0° 75° (ENE) 3,874 6.8 -14.8°
